Location: Unspecified
(38.0989°N, 0.6729°W)
Time: 15:04:36
(UTC+01:00)

Hubble Space Telescope - Visible Passes

Search period start: 24 March 2017 00:00
Search period end: 03 April 2017 01:00
Orbit: 538 x 542 km, 28.5° (Epoch: 22 March)

Date Brightness Start Highest point End Pass type
(mag) Time Alt. Az. Time Alt. Az. Time Alt. Az.
25 Mar 3.3 05:49:12 10° S 05:50:26 11° SSE 05:51:40 10° SE visible
26 Mar 3.1 06:38:20 10° SSW 06:40:18 13° SSE 06:42:18 10° SE visible
27 Mar 2.9 06:28:53 13° S 06:30:11 15° SSE 06:32:36 10° SE visible
28 Mar 2.7 06:19:24 16° S 06:20:04 17° SSE 06:22:47 10° SE visible
29 Mar 2.6 06:09:54 18° S 06:09:58 18° S 06:12:52 10° SE visible
30 Mar 2.6 06:00:24 19° SSE 06:00:24 19° SSE 06:02:54 10° SE visible
31 Mar 2.7 05:50:55 19° SSE 05:50:55 19° SSE 05:52:53 10° SE visible
01 Apr 3.0 05:41:27 16° SE 05:41:27 16° SE 05:42:50 10° SE visible
01 Apr 2.7 07:17:37 10° SW 07:20:18 17° SSW 07:22:58 10° SSE visible
02 Apr 3.3 05:32:02 13° SE 05:32:02 13° SE 05:32:44 10° SE visible
02 Apr 2.8 07:07:48 10° SW 07:10:10 15° SSW 07:12:33 10° SSE visible
